IRIDIUM 164 (43577 NORAD) Tracking and Keplerian Element Data

This shows tracking and keplerian element data for the satellite.

Feedback or suggestion? Click here.




ElementValue
Catalog43577
NameIRIDIUM 164
Epoch Orbit16624
Epoch Day269.69970928
Epoch Year2021
RAAN57.4095
Inclination86.3959
Eccentricity0.0002296
Argument of Perigee88.2701
Mean Anonmoly271.8758
Mean Motion14.34217604
Decay Rate1.05E-06
L11 43577U 18061J 21269.69970928 .00000105 00000-0 30524-4 0 9996
L22 43577 86.3959 57.4095 0002296 88.2701 271.8758 14.34217604166242

Live tracking and technical data element details for IRIDIUM 164 (NORAD 43577). IRIDIUM 164 can be tracked NOW for your location showing map with azimuth and elevation plus other details from your city location.

Track the satellite on the map from your city or location and see movement details for azimuth, elevation, latitude, longitude, range, height, and movement on the map or in text.







IsCatalogInMostPopularTable: catalog: 43577, numindb: 577
Update: records affected: 1



GetName: 43577 IRIDIUM 164

Hit Count: updated at: Tue, 28 Sep 2021 17:18:00 GMT